QPF
0.00 0.00 0.00 0.00 0.00 0.00 0.00 0.00 0.00 0.00 0.00 0.00 0.00 0.00 0.00 0.01 0.00 0.00 0.01 0.01 0.03 0.13 0.14 0.11 0.02 0.02 0.01 0.00 0.01 0.01 0.00 0.00
0.00 0.00 0.00 0.00 0.00 0.00 0.00 0.00 0.00 0.00 0.00 0.00 0.00 0.00 0.00 0.00 0.01 0.00 0.00 0.00 0.06 0.18 0.32 0.19 0.04 0.01 0.01 0.00 0.01 0.01 0.00 0.00
0.00 0.00 0.00 0.00 0.00 0.00 0.00 0.00 0.00 0.00 0.00 0.00 0.00 0.00 0.00 0.00 0.00 0.00 0.00 0.00 0.01 0.08 0.37 0.36 0.16 0.02 0.01 0.00 0.00 0.00 0.00 0.00
0.00 0.00 0.00 0.00 0.00 0.00 0.00 0.00 0.00 0.00 0.00 0.00 0.00 0.00 0.01 0.01 0.01 0.01 0.01 0.01 0.00 0.02 0.17 0.26 0.24 0.11 0.02 0.00 0.00 0.00 0.00 0.00
0.00 0.00 0.00 0.00 0.00 0.00 0.00 0.00 0.00 0.00 0.00 0.00 0.00 0.00 0.00 0.00 0.00 0.01 0.01 0.01 0.01 0.03 0.09 0.21 0.28 0.16 0.04 0.01 0.00 0.00 0.00 0.00
0.00 0.00 0.00 0.00 0.00 0.00 0.00 0.00 0.00 0.00 0.00 0.00 0.00 0.00 0.00 0.00 0.01 0.01 0.01 0.00 0.01 0.10 0.20 0.28 0.19 0.25 0.08 0.02 0.01 0.00 0.00 0.00
0.00 0.00 0.00 0.00 0.00 0.00 0.00 0.00 0.00 0.00 0.00 0.00 0.00 0.00 0.00 0.00 0.00 0.00 0.01 0.01 0.00 0.05 0.19 0.33 0.26 0.13 0.20 0.03 0.02 0.00 0.00 0.00
0.00 0.00 0.00 0.00 0.00 0.00 0.00 0.00 0.00 0.00 0.00 0.00 0.00 0.00 0.00 0.00 0.00 0.00 0.00 0.01 0.02 0.07 0.17 0.28 0.25 0.14 0.15 0.09 0.04 0.02 0.00 0.00
0.00 0.00 0.00 0.00 0.00 0.00 0.00 0.00 0.00 0.00 0.00 0.00 0.00 0.00 0.00 0.00 0.00 0.00 0.00 0.00 0.01 0.09 0.19 0.24 0.23 0.16 0.14 0.16 0.10 0.10 0.01 0.00
0.00 0.00 0.00 0.00 0.00 0.00 0.00 0.00 0.00 0.00 0.00 0.00 0.00 0.00 0.00 0.00 0.00 0.00 0.00 0.00 0.01 0.09 0.18 0.27 0.15 0.17 0.14 0.13 0.14 0.14 0.07 0.00
0.00 0.00 0.00 0.00 0.00 0.00 0.00 0.01 0.00 0.00 0.01 0.01 0.00 0.00 0.00 0.00 0.00 0.00 0.00 0.00 0.02 0.07 0.13 0.25 0.16 0.07 0.09 0.06 0.05 0.03 0.02 0.00
0.00 0.00 0.00 0.00 0.00 0.00 0.01 0.01 0.01 0.03 0.03 0.00 0.00 0.00 0.00 0.00 0.00 0.00 0.00 0.01 0.03 0.09 0.05 0.14 0.16 0.04 0.03 0.02 0.00 0.00 0.00 0.00
0.00 0.00 0.00 0.00 0.00 0.01 0.01 0.01 0.03 0.05 0.02 0.00 0.00 0.00 0.00 0.00 0.00 0.00 0.00 0.01 0.03 0.07 0.07 0.06 0.12 0.07 0.07 0.03 0.02 0.00 0.00 0.00
0.00 0.00 0.00 0.00 0.02 0.02 0.02 0.04 0.06 0.04 0.00 0.00 0.00 0.00 0.00 0.00 0.00 0.00 0.00 0.00 0.02 0.05 0.13 0.12 0.13 0.08 0.07 0.04 0.05 0.01 0.00 0.00
0.00 0.00 0.00 0.01 0.04 0.04 0.07 0.06 0.03 0.01 0.00 0.00 0.00 0.00 0.00 0.00 0.00 0.00 0.00 0.00 0.00 0.03 0.06 0.08 0.14 0.11 0.08 0.05 0.03 0.03 0.00 0.00
0.00 0.00 0.00 0.00 0.01 0.05 0.05 0.07 0.05 0.02 0.01 0.01 0.00 0.00 0.00 0.00 0.00 0.00 0.00 0.00 0.00 0.00 0.00 0.02 0.03 0.08 0.10 0.08 0.09 0.05 0.01 0.01
0.00 0.00 0.00 0.01 0.02 0.08 0.13 0.12 0.08 0.03 0.01 0.01 0.00 0.00 0.00 0.00 0.00 0.00 0.00 0.00 0.00 0.00 0.00 0.00 0.00 0.01 0.07 0.04 0.07 0.11 0.06 0.04
0.00 0.00 0.00 0.00 0.07 0.08 0.21 0.19 0.14 0.06 0.01 0.01 0.00 0.00 0.00 0.00 0.00 0.00 0.00 0.00 0.00 0.00 0.00 0.00 0.00 0.00 0.01 0.02 0.05 0.06 0.09 0.11
0.00 0.00 0.00 0.00 0.02 0.08 0.10 0.19 0.14 0.03 0.00 0.01 0.02 0.01 0.00 0.00 0.00 0.00 0.00 0.00 0.00 0.00 0.00 0.00 0.00 0.00 0.00 0.01 0.04 0.02 0.05 0.06
MSLP
999.83 999.99 1000.35 1000.98 1001.55 1001.82 1002.65 1003.65 1004.54 1006.05 1006.73 1007.59 1008.15 1008.82 1009.31 1009.76 1010.37 1010.76 1011.02 1011.55 1012.03 1012.56 1012.98 1013.34 1013.95 1014.66 1015.11 1015.82 1016.04 1016.43 1016.72 1017.23
999.10 999.36 1000.09 1000.81 1001.40 1001.80 1002.35 1003.16 1003.83 1005.56 1006.07 1006.72 1007.44 1007.88 1008.82 1009.18 1009.69 1010.27 1010.78 1011.18 1011.62 1012.13 1012.72 1013.30 1013.40 1014.06 1014.58 1015.23 1015.59 1015.87 1016.48 1017.04
998.33 998.88 999.78 1000.44 1000.82 1001.61 1002.08 1002.48 1003.28 1005.01 1005.60 1006.01 1006.72 1007.52 1008.31 1008.95 1009.37 1009.74 1010.07 1010.73 1011.18 1011.56 1012.17 1012.63 1012.92 1013.61 1014.32 1015.12 1015.11 1015.39 1015.92 1016.53
998.13 998.48 999.00 999.80 1000.51 1001.22 1001.54 1001.86 1002.75 1004.29 1004.90 1005.90 1006.18 1006.94 1007.83 1008.25 1008.66 1009.16 1009.53 1010.07 1010.56 1010.99 1011.54 1011.76 1012.41 1012.88 1013.89 1014.46 1014.78 1014.94 1015.38 1016.15
998.10 997.98 998.18 998.96 1000.07 1001.07 1001.62 1002.01 1002.51 1003.26 1004.14 1004.94 1005.24 1005.75 1006.38 1007.27 1007.87 1008.43 1008.98 1009.21 1009.71 1010.35 1010.82 1011.44 1011.71 1012.37 1013.33 1014.02 1014.42 1014.67 1014.96 1015.36
998.18 997.89 997.77 998.39 999.72 1000.98 1001.91 1002.36 1002.83 1003.03 1003.59 1004.12 1004.87 1005.42 1005.91 1006.66 1007.15 1007.48 1008.09 1008.70 1009.35 1009.74 1010.25 1010.77 1011.11 1011.83 1012.60 1013.32 1013.97 1014.32 1014.48 1014.69
998.39 998.26 998.35 998.62 999.84 1001.20 1001.95 1002.21 1002.65 1003.13 1003.72 1004.13 1004.63 1005.07 1005.73 1006.45 1006.79 1007.23 1007.68 1008.20 1008.87 1009.28 1009.79 1010.13 1010.47 1011.25 1011.79 1012.77 1013.39 1013.91 1014.02 1014.36
998.51 998.36 998.60 998.99 1000.00 1001.34 1001.95 1001.86 1002.49 1003.18 1003.65 1004.06 1004.56 1005.05 1005.63 1006.23 1006.52 1006.67 1007.35 1007.95 1008.54 1008.72 1009.26 1009.60 1009.89 1010.77 1011.38 1012.03 1012.87 1013.42 1013.83 1014.11
999.10 999.06 999.21 999.76 1000.74 1001.33 1001.91 1001.89 1002.58 1002.95 1003.21 1003.73 1004.42 1004.75 1005.29 1005.76 1005.62 1006.14 1006.96 1007.50 1007.96 1008.41 1008.88 1008.99 1009.38 1010.34 1010.80 1011.48 1012.41 1012.99 1013.52 1013.86
999.78 999.94 1000.07 1000.40 1001.14 1001.58 1001.98 1002.23 1002.54 1002.91 1002.95 1003.53 1003.97 1004.39 1005.07 1005.16 1005.42 1006.19 1006.73 1007.15 1007.74 1008.19 1008.59 1009.03 1009.49 1010.00 1010.58 1011.31 1012.11 1012.63 1013.31 1013.67
1000.63 1000.72 1000.87 1001.12 1001.49 1001.79 1002.22 1002.49 1002.59 1002.94 1003.09 1003.58 1003.85 1004.15 1004.72 1004.96 1005.56 1006.09 1006.46 1006.92 1007.59 1008.06 1008.52 1008.97 1009.36 1010.02 1010.62 1011.28 1011.83 1012.31 1012.99 1013.64
1001.04 1001.74 1001.92 1001.87 1002.05 1002.16 1002.41 1002.69 1002.79 1002.99 1003.38 1003.57 1003.91 1004.31 1004.61 1005.08 1005.44 1005.82 1006.24 1006.78 1007.44 1007.85 1008.24 1008.81 1009.30 1009.91 1010.46 1011.15 1011.52 1012.28 1012.86 1013.37
1001.41 1002.04 1002.84 1002.66 1002.47 1002.59 1002.75 1002.94 1003.00 1003.16 1003.65 1003.82 1004.05 1004.33 1004.64 1005.05 1005.58 1005.90 1006.23 1006.71 1007.29 1007.79 1008.26 1008.80 1009.16 1009.81 1010.30 1010.59 1011.06 1011.78 1012.09 1012.94
1001.66 1002.27 1002.85 1003.44 1003.45 1003.27 1003.20 1003.24 1003.25 1003.39 1003.70 1004.05 1004.15 1004.44 1004.77 1004.79 1005.26 1005.72 1006.15 1006.63 1007.07 1007.75 1008.33 1008.90 1009.38 1009.90 1010.04 1010.49 1010.99 1011.47 1012.10 1012.39
1002.00 1002.69 1003.51 1003.96 1004.38 1004.49 1004.21 1003.61 1003.45 1003.67 1003.84 1003.94 1004.08 1004.29 1004.48 1004.45 1004.72 1005.42 1005.95 1006.56 1006.92 1007.38 1008.02 1008.56 1009.18 1009.81 1010.06 1010.47 1010.82 1011.36 1012.24 1012.69
1002.72 1003.47 1004.58 1005.17 1005.09 1005.20 1005.16 1004.69 1004.23 1003.82 1003.70 1003.59 1003.92 1004.25 1004.39 1004.53 1004.88 1005.03 1005.54 1006.24 1006.68 1007.16 1007.64 1008.22 1008.89 1009.42 1009.78 1010.35 1010.84 1011.36 1011.97 1012.79
1003.51 1004.22 1004.99 1005.71 1006.10 1005.85 1005.80 1005.41 1005.00 1004.63 1003.52 1003.38 1003.80 1004.27 1004.37 1004.45 1004.75 1004.98 1005.26 1005.70 1006.17 1006.58 1007.23 1007.90 1008.41 1008.88 1009.41 1010.02 1010.60 1011.19 1011.72 1012.38
1004.55 1005.06 1005.71 1005.92 1006.50 1006.94 1006.41 1005.89 1005.70 1005.39 1004.44 1003.94 1003.86 1004.20 1004.44 1004.54 1004.66 1004.93 1005.17 1005.50 1005.93 1006.42 1006.89 1007.50 1008.04 1008.64 1009.13 1009.62 1010.19 1010.75 1011.27 1012.22
1005.63 1006.00 1006.44 1006.48 1006.56 1006.91 1006.51 1006.15 1006.62 1006.18 1005.42 1005.07 1005.06 1004.64 1004.35 1004.45 1004.69 1004.79 1005.08 1005.41 1005.76 1006.22 1006.61 1007.09 1007.68 1008.23 1008.85 1009.44 1009.96 1010.64 1011.57 1012.56
Thickness
5723 5725 5727 5729 5727 5726 5719 5712 5707 5694 5688 5680 5675 5669 5663 5658 5652 5647 5643 5638 5634 5630 5625 5623 5619 5617 5616 5614 5615 5616 5618 5617
5723 5722 5721 5720 5720 5718 5713 5707 5705 5692 5686 5680 5673 5669 5661 5658 5653 5646 5640 5636 5632 5627 5623 5617 5620 5616 5616 5614 5614 5614 5614 5615
5718 5718 5715 5713 5715 5712 5709 5707 5704 5689 5684 5680 5674 5666 5660 5654 5649 5645 5640 5633 5630 5627 5622 5617 5616 5614 5611 5608 5614 5614 5615 5616
5710 5711 5712 5712 5708 5706 5707 5707 5701 5688 5683 5674 5671 5665 5657 5652 5647 5643 5638 5632 5628 5625 5620 5619 5613 5613 5609 5609 5611 5615 5613 5612
5703 5708 5710 5711 5704 5701 5699 5699 5696 5689 5683 5673 5670 5666 5661 5653 5647 5642 5636 5632 5629 5624 5619 5614 5612 5610 5607 5607 5608 5612 5611 5609
5692 5699 5706 5709 5701 5693 5688 5687 5685 5684 5680 5674 5667 5662 5660 5654 5648 5644 5638 5630 5625 5621 5616 5613 5611 5607 5607 5606 5605 5605 5609 5610
5682 5688 5694 5697 5692 5682 5679 5680 5679 5675 5671 5666 5662 5659 5653 5647 5644 5640 5635 5629 5623 5619 5613 5608 5607 5605 5604 5603 5604 5604 5608 5608
5671 5677 5681 5685 5681 5671 5670 5674 5672 5666 5664 5660 5656 5653 5647 5642 5640 5640 5633 5626 5619 5617 5612 5606 5604 5601 5600 5601 5601 5602 5603 5604
5657 5662 5667 5669 5664 5663 5662 5665 5662 5661 5662 5657 5651 5650 5645 5641 5643 5638 5631 5624 5619 5614 5608 5606 5603 5598 5599 5600 5600 5600 5599 5601
5643 5648 5652 5655 5652 5652 5652 5654 5655 5654 5658 5652 5649 5647 5641 5640 5639 5632 5627 5623 5616 5610 5604 5600 5598 5596 5596 5596 5596 5596 5595 5597
5626 5632 5635 5639 5640 5642 5642 5643 5645 5644 5647 5644 5643 5642 5638 5637 5633 5627 5625 5620 5613 5607 5601 5595 5594 5592 5593 5593 5593 5595 5596 5591
5617 5614 5618 5624 5626 5630 5631 5632 5635 5635 5636 5636 5636 5634 5633 5630 5629 5625 5623 5618 5610 5606 5601 5595 5591 5590 5591 5591 5597 5596 5593 5590
5608 5607 5601 5607 5615 5618 5620 5622 5624 5626 5625 5627 5627 5628 5627 5624 5622 5620 5619 5614 5609 5604 5600 5594 5591 5590 5592 5596 5596 5592 5593 5589
5598 5600 5598 5592 5596 5606 5609 5611 5614 5616 5615 5616 5619 5620 5620 5620 5619 5617 5616 5611 5608 5602 5597 5593 5590 5588 5592 5592 5591 5589 5587 5586
5587 5588 5586 5583 5579 5583 5588 5601 5605 5606 5606 5611 5614 5616 5617 5619 5619 5615 5613 5608 5606 5604 5599 5595 5589 5587 5588 5589 5589 5588 5583 5581
5573 5572 5568 5564 5566 5569 5574 5582 5589 5597 5601 5608 5609 5610 5612 5612 5612 5612 5611 5607 5604 5602 5600 5596 5590 5587 5587 5586 5586 5584 5581 5576
5562 5559 5559 5553 5549 5557 5562 5569 5575 5581 5596 5603 5604 5603 5606 5608 5608 5608 5607 5606 5604 5603 5600 5596 5593 5592 5588 5585 5584 5581 5580 5576
5548 5547 5544 5547 5542 5539 5549 5556 5559 5564 5578 5591 5597 5597 5598 5601 5604 5604 5604 5602 5602 5600 5597 5594 5592 5590 5586 5585 5583 5583 5581 5574
5534 5533 5533 5536 5538 5536 5542 5544 5542 5547 5562 5571 5575 5585 5594 5596 5597 5599 5600 5599 5598 5595 5594 5592 5590 5588 5581 5579 5577 5576 5570 5563